Miscellaneous Local Product
Issued by NWS Hastings, NE

Home | Current Version | Previous Version | Text Only | Print | Product List | Glossary On
Versions: 1 2 3 4 5 6 7 8 9 10 11 12 13 14 15 16 17 18 19 20 21 22 23 24 25 26 27 28 29 30 31 32 33 34 35 36 37 38 39 40 41 42 43 44 45 46 47 48 49 50
000
AXUS43 KGID 190610
MISGRI

GID CWA HOURLY WEATHER ROUNDUP
NATIONAL WEATHER SERVICE HASTINGS NE
100 AM CDT FRI SEP 19 2014

NOTE: "FAIR" INDICATES FEW OR NO CLOUDS BELOW 12,000 FEET WITH NO
SIGNIFICANT WEATHER AND/OR OBSTRUCTIONS TO VISIBILITY.

...SOUTH CENTRAL NEBRASKA...

CITY           SKY/WX    TMP DP  RH WIND       PRES   REMARKS
GRAND ISLAND   CLOUDY    65  63  93 S18G30    29.93R FOG
HASTINGS       CLOUDY    65  61  87 S17G29    29.93S FOG
KEARNEY        CLOUDY    66  63  88 SE22G28   29.92R
ORD            CLOUDY    65  63  93 SE12      29.87S
YORK           CLOUDY    63  63 100 S16G23    29.96R FOG
AURORA         CLOUDY    63  63 100 S16       29.94S FOG
LEXINGTON      CLEAR     62  61  97 SE8       29.89S
HOLDREGE       CLEAR     65  62  89 SE17      29.91R
HEBRON         CLOUDY    65  61  89 SE10      29.96F FOG

...NEBRASKA PANHANDLE...

CITY           SKY/WX    TMP DP  RH WIND       PRES   REMARKS
CHADRON        PTCLDY    73  60  63 S15G26    29.75S
ALLIANCE       CLEAR     61  60  97 S12       29.85F
SCOTTSBLUFF    CLEAR     63  61  93 E10       29.86S
SIDNEY         CLEAR     62  57  83 S9        29.92S

...WESTERN AND NORTH CENTRAL NEBRASKA...

CITY           SKY/WX    TMP DP  RH WIND       PRES   REMARKS
VALENTINE      CLOUDY    65  62  90 S17G31    29.81F
AINSWORTH      CLOUDY    66  63  90 S17G26    29.84F
ONEILL         CLOUDY    67  65  95 S13G20    29.86F
BROKEN BOW     PTCLDY    63  62  97 SE6       29.88S FOG
IMPERIAL       CLEAR     61  59  93 SE10      29.89F
NORTH PLATTE   FOG       58  58 100 E7        29.88F VSB 1/4
MCCOOK         FOG       57  57 100 E6        29.89S VSB 1/4

...EASTERN NEBRASKA...

CITY           SKY/WX    TMP DP  RH WIND       PRES   REMARKS
NORFOLK        MOCLDY    61  58  90 SE18G26   29.92S
SO SIOUX CITY  CLEAR     60  57  89 SE9       29.95S
TEKAMAH        CLEAR     61  57  87 SE9       29.97S
ALBION         CLOUDY    63  60  91 S18G24    29.92R FOG
OMAHA EPPLEY   PTCLDY    62  57  83 SE13      29.99S
OFFUTT AFB     CLEAR     59  59 100 SE8       29.99S
MILLARD        PTCLDY    62  59  89 SE8       29.99R
LINCOLN        MOCLDY    64  60  87 S14       29.98S
NEBRASKA CITY  CLEAR     60  59  97 S7        30.00S FOG
BEATRICE       CLOUDY    63  60  91 S9        29.98F
FALLS CITY     CLEAR     58  57  97 SE5       30.00S FOG

...NORTHERN KANSAS...

CITY           SKY/WX    TMP DP  RH WIND       PRES   REMARKS
GOODLAND       CLEAR     68  56  65 S16G22    29.94F
HILL CITY      CLEAR     69  63  81 S8        29.92R
NORTON         CLEAR     66  59  77 SE8       29.89S
PHILLIPSBURG   CLEAR     66  63  88 E9        29.92S
SMITH CENTER   CLEAR     64  63  94 SE16      29.94S
BELOIT         CLOUDY    68  64  88 SE13      29.94S
HAYS           CLEAR     70  59  68 S15       29.94S
RUSSELL        CLEAR     67  60  78 S17       29.93R
CONCORDIA      CLOUDY    67  65  93 SE17      29.96S
SALINA         CLEAR     68  63  84 SE9       29.96S
TOPEKA         CLEAR     62  62 100 E3        30.01S



USA.gov is the U.S. government's official web portal to all federal, state and local government web resources and services.